User: anonymous   Login
Location: Writing-on-Stone Provincial Park
(49.0825°N, 111.6163°W)
Time: 13:41:31
(UTC-06:00)
Language:

BREEZE-M DEB (TANK) - Orbit

View from above orbital plane
View from above orbital plane
View from above satellite
View from above satellite

Ground track
Ground track

The orbit data is extracted from the following two-line orbital elements,

1 29649U 06056B   18108.84141225 +.00002493 +00000-0 +37984-3 0  9994
2 29649 049.5362 009.4138 5383709 352.8668 001.8715 05.00570911203071
Epoch (UTC): 18 April 2018 20:11:38
Eccentricity: 0.5383709
inclination: 49.5362°
perigee height: 285 km
apogee height: 15828 km
right ascension of ascending node: 9.4138°
argument of perigee: 352.8668°
revolutions per day: 5.00570911
mean anomaly at epoch: 1.8715°
orbit number at epoch: 20307

The dashed part of the orbit path shows where the satellite is in the earth's shadow,  

DLR